Regional Weather Roundup
Issued by NWS

Home | Current Version | Previous Version | Text Only | Print | Product List | Glossary Off
Versions: 1 2 3 4 5 6 7 8 9 10 11 12 13 14 15 16 17 18 19 20 21 22 23 24 25 26 27 28 29 30 31 32 33 34 35 36 37 38 39 40 41 42 43 44 45 46 47 48 49 50

405
ASUS43 KBIS 170110
RWRND

NORTH DAKOTA REGIONAL WEATHER ROUNDUP
NATIONAL WEATHER SERVICE BISMARCK ND
700 PM CST MON JAN 16 2017

NOTE: "FAIR" INDICATES FEW OR NO CLOUDS BELOW 12,000 FEET WITH NO
SIGNIFICANT WEATHER AND/OR OBSTRUCTIONS TO VISIBILITY.


NDZ001>003-009>011-017-170200-
NORTHWEST NORTH DAKOTA

CITY           SKY/WX    TMP DP  RH WIND       PRES   REMARKS
WILLISTON      FAIR      14  10  84 S3        30.08F
MINOT          FAIR      21  16  81 SW5       30.04S WCI  15
$$

NDZ018>021-031>035-040>046-170200-
SOUTHWEST NORTH DAKOTA

CITY           SKY/WX    TMP DP  RH WIND       PRES   REMARKS
BISMARCK       FAIR      14  10  84 CALM      30.09F
DICKINSON      FAIR      15  10  80 W10       30.04F WCI   2
GARRISON         N/A     13   9  84 S5        30.06S WCI   5
HETTINGER ARPT CLOUDY    13   9  84 NW13      30.09S WCI  -2
$$

NDZ004>008-012>016-024-026-027-054-170200-
NORTHEAST NORTH DAKOTA

CITY           SKY/WX    TMP DP  RH WIND       PRES   REMARKS
GRAND FORKS    CLOUDY    10   6  84 W3        30.04S
GRND FRKS AFB  CLOUDY    12   7  79 NW5       30.04S WCI   4
DEVILS LAKE    FAIR       8   5  87 W5        30.04S WCI   0
$$

NDZ022-023-025-028>030-036>039-047>053-170200-
SOUTHEAST NORTH DAKOTA

CITY           SKY/WX    TMP DP  RH WIND       PRES   REMARKS
FARGO          CLOUDY    15  10  80 S5        30.07R WCI   8
JAMESTOWN      FAIR      13   9  84 NW10      30.02S WCI   0
$$





USA.gov is the U.S. government's official web portal to all federal, state and local government web resources and services.